Regional Weather Roundup
Issued by NWS

Home | Current Version | Previous Version | Text Only | Print | Product List | Glossary Off
Versions: 1 2 3 4 5 6 7 8 9 10 11 12 13 14 15 16 17 18 19 20 21 22 23 24 25 26 27 28 29 30 31 32 33 34 35 36 37 38 39 40 41 42 43 44 45 46 47 48 49 50

000
ASUS43 KFSD 181102
RWRSD

WEATHER ROUNDUP FOR SOUTH DAKOTA
NATIONAL WEATHER SERVICE SIOUX FALLS SD
500 AM CST MON DEC 18 2017

NOTE: "FAIR" INDICATES FEW OR NO CLOUDS BELOW 12,000 FEET WITH NO
SIGNIFICANT WEATHER AND/OR OBSTRUCTIONS TO VISIBILITY.


SDZ001>005-009-010-012>017-181200-
NORTHWEST AND NORTH CENTRAL SOUTH DAKOTA

CITY           SKY/WX    TMP DP  RH WIND       PRES   REMARKS
BUFFALO          N/A     29  21  72 W12       29.65F WCI  19
FAITH            N/A     29  21  72 SW13      29.74F WCI  19
MOBRIDGE       CLOUDY    31  23  72 CALM      29.71F
$$

SDZ012>016-024>037-041>051-057-063-072>074-181200-
SOUTHWEST AND SOUTH CENTRAL SOUTH DAKOTA

CITY           SKY/WX    TMP DP  RH WIND       PRES   REMARKS
RAPID CTY ARPT CLOUDY    27  17  66 SW6       29.79F WCI  20
PIERRE         CLOUDY    28  23  81 SW9       29.79S WCI  19
CUSTER         CLOUDY    26  13  57 W9        29.80S WCI  17
ELLSWORTH AFB  CLOUDY    25  17  72 W8        29.77F WCI  16
PHILIP         CLOUDY    28  23  81 W7        29.81F WCI  21
PINE RIDGE     CLOUDY    28  19  69 W5        29.87F WCI  23
SPEARFISH      FAIR      39  19  45 SW21G26   29.75F
WINNER         FAIR      32  23  69 W8        29.82F WCI  25
$$

SDZ004>011-016>023-039-040-181200-
NORTHEAST SOUTH DAKOTA

CITY           SKY/WX    TMP DP  RH WIND       PRES   REMARKS
ABERDEEN       CLOUDY    20  20 100 SW6       29.73F WCI  12
WATERTOWN      CLOUDY    28  27  96 SW12      29.73F WCI  18
BROOKINGS      CLEAR     27  24  89 S7        29.78F WCI  19
SISSETON         N/A     34  29  82 SW14      29.69F WCI  25
$$

SDZ017-020-022-023-036>040-048>070-181200-
SOUTHEAST SOUTH DAKOTA

CITY           SKY/WX    TMP DP  RH WIND       PRES   REMARKS
SIOUX FALLS    CLOUDY    28  25  88 SW6       29.81F WCI  22
HURON          CLOUDY    25  23  92 MISG      29.77F
CHAMBERLAIN    CLOUDY    27  26  96 CALM      29.81F
MITCHELL       CLOUDY    29  26  89 SW9       29.81F WCI  20
YANKTON        PTCLDY    22  20  92 NE3       29.83F
$$

ABBREVIATIONS USED IN REMARKS
   TC - TEMPERATURE IN CELSIUS
  WCI - WIND CHILL INDEX
   HX - HEAT INDEX
  VSB - VISIBILITY





USA.gov is the U.S. government's official web portal to all federal, state and local government web resources and services.